OPS 4682 DEB, 38433

Orbit data source: Space-Track

OPS 4682 DEB, 38433 is space debris in LEO originally from a launch on Sat, 03 Apr 1965 UTC launched from the Air Force Western Test Range (AFWTR). Debris objects in space refer to the collection of defunct objects orbiting the Earth. Examples of debris include non-operational satellites, rocket bodies, and fragments generated from explosions, collisions, or faulty payload assembly.

Loading next visibility...
Identifier
38433, 1965-027EN
Orbit
LEO
Country
Flag of USUS
Related business
Manufacturer
Unknown
Mission
Spacecraft
Bus & Motor
Unknown
Mass
Unknown
Launch date (UTC)
1965-04-03 (61 years ago)
Launch vehicle
Unknown
Launch site
Air Force Western Test Range (AFWTR)
Object type
Payload
Rocket body
Debris
Shape & HBR
Unknown shape, 0.1 m
Radar Cross Section
Medium (>0.1 m² and <1 m²)

Expand to show TLE details & history
Last TLE update: 9 hours ago

TLE from 9 hours ago
0 OPS 4682 DEB
1 38433U 65027EN  26235.64912789  .00000267  00000-0  72082-3 0  9992
2 38433  90.2624  14.9150 0025387 356.3221   3.7718 13.12306060640696
Epoch: 2026-08-23T15:34Z
TLE epoch observation values (Epoch: 2026-08-23T15:34:44.649Z)
Latitude
Longitude
169.28681°
Altitude
1,197.913 km
Speed
7.264 km/s
True Right ascension
00h 59m 39s
True Declination
0° 00' 00"
Sunlit
Object was in full shadow at epoch
Visualization orbit readout
Latitude
Unknown
Longitude
Unknown
Altitude
Unknown
Speed
Unknown
Apparent Right ascension
Unknown
Apparent Declination
Unknown
Sunlit
N/A
Visualization observer readout
Local Sidereal Time
15:53:06
Azimuth
Unknown
Elevation
Unknown
Doppler factor
Unknown
Orbital elements
Apogee altitude
1,230.624 km
Perigee altitude
1,192.089 km
Semi-major axis
7,589.494 km
Eccentricity
0.00254
Inclination
90.2624°
RAAN
14.915°
Arg. of periapsis
356.3221°
True anomaly
3.791°
Mean anomaly
3.7718°
Eccentric anomaly
3.78139°
Mean motion
3.28265 °/min
Orbital period
109.67 mins
BSTAR
0.00072082
Loading maneuver chart data...
Computing Atmospheric mass density...
Loading historical data...
Loading historical data...
Loading historical data...
Loading historical data...
Loading historical data...
Loading historical data...
Loading historical data...

Documentation

Showing up to 5 results
|